Date String (YYYY-MM-DD hh:mm:ss) UTC,Instrument flags,Ambient pressure (hPa),Sample flow (lpm),Bypass flow (lpm),Sample temperature (°C),Ambient temperature (°C),ASC tube jacket temperature (°C),LED temperature (°C),Box temperature (°C),Sample RH (%),Span deviation,Mass concentration (μg/m³),Mass concentration (μg/m³),Mass concentration (μg/m³)
DateTimeUTC,F1_M11,P_M11,Q1_M11,Q2_M11,T1_M11,T2_M11,T3_M11,T4_M11,T5_M11,U1_M11,ZSPAN_M11,X0_M11,X2_M11,X1_M11
2022-11-29 11:00:00,,0813.5,5.01,0.00,22.4,21.1,00.0,31.4,24.2,11.4,0000.0,0001.79,0000.97,0000.80
2022-11-29 11:01:00,,0813.5,5.00,0.00,22.4,21.0,00.0,31.4,24.2,11.4,0000.0,0001.88,0001.02,0000.83
2022-11-29 11:02:00,,0813.4,4.99,0.00,22.4,21.0,00.0,31.4,24.2,11.4,0000.0,0001.88,0001.05,0000.87
2022-11-29 11:03:00,,0813.5,5.00,0.00,22.4,20.9,00.0,31.4,24.1,11.4,0000.0,0001.83,0001.05,0000.89
2022-11-29 11:04:00,,0813.4,5.01,0.00,22.4,21.3,00.0,31.3,24.2,11.4,0000.0,0001.82,0001.07,0000.92
2022-11-29 11:05:00,,0813.4,5.01,0.00,22.5,22.2,00.0,31.3,24.4,11.3,0000.0,0001.79,0001.07,0000.93
2022-11-29 11:06:00,,0813.3,4.99,0.00,22.6,22.5,00.0,31.3,24.6,11.2,0000.0,0001.89,0001.11,0000.97
2022-11-29 11:07:00,,0813.3,5.01,0.00,22.6,22.1,00.0,31.4,24.5,11.2,0000.0,0001.93,0001.15,0001.00
2022-11-29 11:08:00,,0813.5,5.01,0.00,22.6,21.8,00.0,31.4,24.4,11.2,0000.0,0001.94,0001.17,0001.02
2022-11-29 11:09:00,,0813.5,4.99,0.00,22.5,21.5,00.0,31.4,24.3,11.3,0000.0,0001.95,0001.19,0001.05
2022-11-29 11:10:00,,0813.5,5.01,0.00,22.5,21.4,00.0,31.4,24.3,11.2,0000.0,0001.82,0001.21,0001.06
2022-11-29 11:11:00,,0813.5,5.01,0.00,22.5,21.2,00.0,31.4,24.2,11.2,0000.0,0001.68,0001.21,0001.06
2022-11-29 11:12:00,,0813.5,5.00,0.00,22.4,21.0,00.0,31.4,24.2,11.2,0000.0,0001.58,0001.14,0001.03
2022-11-29 11:13:00,,0813.6,4.99,0.00,22.4,20.9,00.0,31.4,24.1,11.2,0000.0,0001.60,0001.12,0000.99
2022-11-29 11:14:00,,0813.6,5.00,0.00,22.4,21.1,00.0,31.4,24.1,11.1,0000.0,0001.59,0001.10,0000.95
2022-11-29 11:15:00,,0813.9,5.01,0.00,22.5,22.0,00.0,31.3,24.4,11.0,0000.0,0001.59,0001.07,0000.91
2022-11-29 11:16:00,,0814.2,5.01,0.00,22.6,22.5,00.0,31.4,24.5,11.0,0000.0,0001.58,0001.04,0000.87
2022-11-29 11:17:00,,0814.3,4.99,0.00,22.6,22.1,00.0,31.4,24.5,10.9,0000.0,0001.49,0001.00,0000.83
2022-11-29 11:18:00,,0814.2,5.01,0.00,22.6,21.7,00.0,31.4,24.4,10.9,0000.0,0001.47,0000.96,0000.78
2022-11-29 11:19:00,,0814.3,5.01,0.00,22.5,21.5,00.0,31.4,24.3,10.9,0000.0,0001.45,0000.92,0000.73
2022-11-29 11:20:00,,0814.3,4.98,0.00,22.5,21.3,00.0,31.4,24.2,11.0,0000.0,0001.48,0000.90,0000.69
2022-11-29 11:21:00,,0814.1,5.00,0.00,22.5,21.2,00.0,31.4,24.2,11.0,0000.0,0001.39,0000.86,0000.65
2022-11-29 11:22:00,,0814.0,5.00,0.00,22.4,21.0,00.0,31.4,24.2,11.0,0000.0,0001.30,0000.82,0000.63
2022-11-29 11:23:00,,0813.9,5.01,0.00,22.4,20.9,00.0,31.4,24.1,11.0,0000.0,0001.29,0000.81,0000.63
2022-11-29 11:24:00,,0813.6,5.01,0.00,22.4,21.1,00.0,31.4,24.2,11.0,0000.0,0001.31,0000.81,0000.63
2022-11-29 11:25:00,,0813.6,4.99,0.00,22.5,22.0,00.0,31.3,24.4,10.9,0000.0,0001.39,0000.81,0000.63
2022-11-29 11:26:00,,0813.6,5.00,0.00,22.6,22.7,00.0,31.3,24.6,10.9,0000.0,0001.40,0000.82,0000.65
2022-11-29 11:27:00,,0813.6,4.99,0.00,22.6,22.3,00.0,31.4,24.6,10.9,0000.0,0001.46,0000.85,0000.66
2022-11-29 11:28:00,,0813.5,5.00,0.00,22.6,21.9,00.0,31.4,24.5,10.9,0000.0,0001.45,0000.86,0000.68
2022-11-29 11:29:00,,0813.5,5.01,0.00,22.6,21.6,00.0,31.5,24.4,10.9,0000.0,0001.45,0000.86,0000.69
2022-11-29 11:30:00,,0813.5,5.00,0.00,22.5,21.4,00.0,31.5,24.3,10.9,0000.0,0001.46,0000.86,0000.70
2022-11-29 11:31:00,,0813.5,4.99,0.00,22.5,21.2,00.0,31.5,24.2,10.9,0000.0,0001.44,0000.87,0000.71
2022-11-29 11:32:00,,0813.6,5.01,0.00,22.5,21.0,00.0,31.5,24.2,10.9,0000.0,0001.48,0000.90,0000.73
2022-11-29 11:33:00,,0813.9,5.01,0.00,22.4,20.9,00.0,31.5,24.2,10.9,0000.0,0001.52,0000.92,0000.75
2022-11-29 11:34:00,,0814.3,5.01,0.00,22.4,21.0,00.0,31.4,24.1,10.9,0000.0,0001.50,0000.92,0000.75
2022-11-29 11:35:00,,0814.2,5.01,0.00,22.5,21.8,00.0,31.4,24.3,10.9,0000.0,0001.50,0000.93,0000.75
2022-11-29 11:36:00,,0814.1,5.00,0.00,22.6,22.6,00.0,31.4,24.6,10.8,0000.0,0001.40,0000.91,0000.75
2022-11-29 11:37:00,,0814.1,4.99,0.00,22.6,22.3,00.0,31.4,24.6,10.8,0000.0,0001.34,0000.90,0000.74
2022-11-29 11:38:00,,0814.3,5.00,0.00,22.6,21.9,00.0,31.5,24.4,10.8,0000.0,0001.33,0000.89,0000.73
2022-11-29 11:39:00,,0814.2,5.01,0.00,22.6,21.6,00.0,31.5,24.3,10.8,0000.0,0001.31,0000.88,0000.72
2022-11-29 11:40:00,,0814.0,4.99,0.00,22.5,21.3,00.0,31.5,24.3,10.8,0000.0,0001.37,0000.89,0000.71
2022-11-29 11:41:00,,0814.3,5.00,0.00,22.5,20.9,00.0,31.5,24.2,10.8,0000.0,0001.37,0000.89,0000.69
2022-11-29 11:42:00,,0814.3,5.01,0.00,22.4,20.7,00.0,31.5,24.1,10.7,0000.0,0001.39,0000.90,0000.67
2022-11-29 11:43:00,,0814.5,5.01,0.00,22.4,21.2,00.0,31.4,24.2,10.7,0000.0,0001.31,0000.87,0000.64
2022-11-29 11:44:00,,0814.8,4.99,0.00,22.5,22.2,00.0,31.4,24.4,10.6,0000.0,0001.46,0000.83,0000.62
2022-11-29 11:45:00,,0814.6,5.00,0.00,22.6,22.5,00.0,31.4,24.6,10.5,0000.0,0002.23,0000.85,0000.60
2022-11-29 11:46:00,,0814.6,5.00,0.00,22.6,22.1,00.0,31.5,24.5,10.5,0000.0,0002.28,0000.85,0000.58
2022-11-29 11:47:00,,0814.6,5.02,0.00,22.6,21.7,00.0,31.5,24.4,10.5,0000.0,0002.39,0000.87,0000.56
2022-11-29 11:48:00,,0814.4,4.99,0.00,22.6,21.4,00.0,31.5,24.3,10.5,0000.0,0002.48,0000.86,0000.56
2022-11-29 11:49:00,,0814.4,4.99,0.00,22.5,21.2,00.0,31.5,24.2,10.5,0000.0,0002.45,0000.84,0000.55
2022-11-29 11:50:00,,0814.5,5.00,0.00,22.5,21.0,00.0,31.5,24.2,10.5,0000.0,0002.45,0000.83,0000.53
2022-11-29 11:51:00,,0814.4,5.00,0.00,22.4,20.8,00.0,31.5,24.1,10.5,0000.0,0002.41,0000.80,0000.52
2022-11-29 11:52:00,,0814.4,5.01,0.00,22.4,20.8,00.0,31.4,24.1,10.5,0000.0,0002.52,0000.77,0000.51
2022-11-29 11:53:00,,0814.4,5.01,0.00,22.4,21.6,00.0,31.4,24.2,10.5,0000.0,0002.89,0000.75,0000.52
2022-11-29 11:54:00,,0814.4,4.99,0.00,22.5,22.4,00.0,31.4,24.5,10.4,0000.0,0002.95,0000.77,0000.53
2022-11-29 11:55:00,,0814.4,4.99,0.00,22.6,22.2,00.0,31.4,24.5,10.4,0000.0,0002.93,0000.79,0000.53
2022-11-29 11:56:00,,0814.3,5.02,0.00,22.6,21.8,00.0,31.5,24.4,10.4,0000.0,0002.07,0000.78,0000.54
2022-11-29 11:57:00,,0814.5,4.99,0.00,22.5,21.5,00.0,31.5,24.3,10.3,0000.0,0001.96,0000.75,0000.54
2022-11-29 11:58:00,,0814.4,5.01,0.00,22.5,21.2,00.0,31.5,24.2,10.4,0000.0,0002.76,0000.77,0000.54
2022-11-29 11:59:00,,0814.4,5.00,0.00,22.5,21.0,00.0,31.5,24.2,10.4,0000.0,0003.44,0000.78,0000.54
